{"data":{"norad_id":89184,"epoch":"2026-05-23T22:00:36.925920Z","epoch_age_seconds":164671,"freshness":"FRESH","line1":"1 89184U          26143.91709405  .00018391  00000+0  19169-2 0  9990","line2":"2 89184  98.3783  22.2821 0008204 342.8923  17.2015 14.89815198516251","mean_motion":14.89815198,"eccentricity":0.0008204,"inclination_deg":98.3783,"raan_deg":22.2821,"arg_perigee_deg":342.8923,"mean_anomaly_deg":17.2015,"bstar":0.0019169,"rev_number":51625,"period_min":96.656283405695,"perigee_km":592.78890137431,"apogee_km":604.23618794719,"semimajor_km":6976.6495446607,"source":"CELESTRAK","updated_at":"2026-05-25T13:38:11.779066Z"}}